H1 CPF 2 NER 2022 3 10 9 069 01 glonass143 H2 2007501 9143 46805 2022 3 10 0 0 0 2022 3 13 23 45 0 900 1 1 0 0 0 1 H9 10 0 59648 0.00000 0 9807067.636 -5662649.643 -22849657.224 10 0 59648 900.00000 0 10517769.667 -2919508.507 -23048639.343 10 0 59648 1800.00000 0 11425571.133 -238493.759 -22799743.591 10 0 59648 2700.00000 0 12504307.780 2315575.342 -22107845.501 10 0 59648 3600.00000 0 13717106.911 4683954.925 -20986425.484 10 0 59648 4500.00000 0 15017889.601 6816174.284 -19457304.684 10 0 59648 5400.00000 0 16353278.164 8671883.918 -17550219.343 10 0 59648 6300.00000 0 17664829.009 10222278.090 -15302241.818 10 0 59648 7200.00000 0 18891497.279 11451033.778 -12757059.380 10 0 59648 8100.00000 0 19972229.845 12354728.208 -9964124.660 10 0 59648 9000.00000 0 20848577.680 12942718.957 -6977694.087 10 0 59648 9900.00000 0 21467217.698 13236492.986 -3855773.084 10 0 59648 10800.00000 0 21782277.829 13268513.388 -658988.539 10 0 59648 11700.00000 0 21757367.277 13080613.640 2550589.366 10 0 59648 12600.00000 0 21367226.278 12722008.084 5710652.778 10 0 59648 13500.00000 0 20598925.641 12247003.535 8759865.604 10 0 59648 14400.00000 0 19452565.276 11712509.303 11639053.114 10 0 59648 15300.00000 0 17941441.966 11175451.248 14292348.434 10 0 59648 16200.00000 0 16091678.889 10690199.338 16668273.792 10 0 59648 17100.00000 0 13941331.810 10306117.395 18720735.782 10 0 59648 18000.00000 0 11539008.731 10065338.350 20409915.677 10 0 59648 18900.00000 0 8942059.875 10000858.704 21703038.065 10 0 59648 19800.00000 0 6214412.525 10135032.381 22575003.494 10 0 59648 20700.00000 0 3424139.994 10478527.380 23008873.341 10 0 59648 21600.00000 0 640864.686 11029789.252 22996197.990 10 0 59648 22500.00000 0 -2066897.979 11775034.364 22537182.155 10 0 59648 23400.00000 0 -4634345.494 12688773.754 21640684.168 10 0 59648 24300.00000 0 -7002836.935 13734846.359 20324048.971 10 0 59648 25200.00000 0 -9122083.636 14867919.063 18612777.552 10 0 59648 26100.00000 0 -10951991.577 16035391.441 16540038.574 10 0 59648 27000.00000 0 -12464079.571 17179625.933 14146030.898 10 0 59648 27900.00000 0 -13642414.798 18240410.312 11477208.571 10 0 59648 28800.00000 0 -14484027.144 19157549.181 8585382.700 10 0 59648 29700.00000 0 -14998785.630 19873475.430 5526717.193 10 0 59648 30600.00000 0 -15208742.716 20335771.359 2360637.606 10 0 59648 31500.00000 0 -15146974.681 20499492.613 -851325.526 10 0 59648 32400.00000 0 -14855967.658 20329196.131 -4046736.125 10 0 59648 33300.00000 0 -14385618.170 19800585.602 -7163470.901 10 0 59648 34200.00000 0 -13790933.441 18901704.037 -10140932.155 10 0 59648 35100.00000 0 -13129529.464 17633622.124 -12921230.811 10 0 59648 36000.00000 0 -12459033.414 16010592.419 -15450316.053 10 0 59648 36900.00000 0 -11834500.886 14059661.996 -17679029.079 10 0 59648 37800.00000 0 -11305957.687 11819759.057 -19564060.217 10 0 59648 38700.00000 0 -10916170.416 9340291.041 -21068790.809 10 0 59648 39600.00000 0 -10698740.198 6679312.389 -22164003.566 10 0 59648 40500.00000 0 -10676600.052 3901337.896 -22828447.974 10 0 59648 41400.00000 0 -10860979.249 1074892.277 -23049250.178 10 0 59648 42300.00000 0 -11250878.177 -1730102.459 -22822159.788 10 0 59648 43200.00000 0 -11833075.736 -4444993.808 -22151629.243 10 0 59648 44100.00000 0 -12582668.863 -7005009.579 -21050724.463 10 0 59648 45000.00000 0 -13464121.452 -9351704.858 -19540868.692 10 0 59648 45900.00000 0 -14432778.525 -11435144.349 -17651424.528 10 0 59648 46800.00000 0 -15436781.996 -13215730.273 -15419122.161 10 0 59648 47700.00000 0 -16419307.424 -14665600.724 -12887344.811 10 0 59648 48600.00000 0 -17321027.604 -15769541.381 -10105285.087 10 0 59648 49500.00000 0 -18082699.208 -16525373.742 -7126988.498 10 0 59648 50400.00000 0 -18647763.382 -16943804.900 -4010302.755 10 0 59648 51300.00000 0 -18964850.523 -17047746.484 -815753.334 10 0 59648 52200.00000 0 -18990083.404 -16871132.647 2394632.736 10 0 59648 53100.00000 0 -18689081.247 -16457287.925 5558531.661 10 0 59648 54000.00000 0 -18038579.945 -15856914.764 8614532.657 10 0 59648 54900.00000 0 -17027599.721 -15125786.308 11503329.025 10 0 59648 55800.00000 0 -15658110.640 -14322242.315 14168867.243 10 0 59648 56700.00000 0 -13945167.377 -13504594.148 16559431.855 10 0 59648 57600.00000 0 -11916506.891 -12728548.355 18628645.367 10 0 59648 58500.00000 0 -9611625.075 -12044757.308 20336364.066 10 0 59648 59400.00000 0 -7080370.022 -11496599.852 21649452.954 10 0 59648 60300.00000 0 -4381109.569 -11118285.059 22542425.331 10 0 59648 61200.00000 0 -1578548.344 -10933358.523 22997935.147 10 0 59648 62100.00000 0 1258716.072 -10953673.822 23007113.022 10 0 59648 63000.00000 0 4060797.573 -11178872.249 22569739.668 10 0 59648 63900.00000 0 6759179.504 -11596392.825 21694253.342 10 0 59648 64800.00000 0 9289316.982 -12182012.464 20397590.966 10 0 59648 65700.00000 0 11593076.509 -12900894.066 18704865.458 10 0 59648 66600.00000 0 13620912.258 -13709099.056 16648884.899 10 0 59648 67500.00000 0 15333689.236 -14555501.288 14269522.085 10 0 59648 68400.00000 0 16704077.948 -15384022.294 11612945.898 10 0 59648 69300.00000 0 17717462.757 -16136093.984 8730728.801 10 0 59648 70200.00000 0 18372326.439 -16753245.051 5678847.307 10 0 59648 71100.00000 0 18680095.274 -17179701.782 2516594.567 10 0 59648 72000.00000 0 18664451.625 -17364892.941 -694573.640 10 0 59648 72900.00000 0 18360143.527 -17265752.236 -3892236.804 10 0 59648 73800.00000 0 17811342.086 -16848720.158 -7014227.681 10 0 59648 74700.00000 0 17069616.655 -16091359.595 -9999845.960 10 0 59648 75600.00000 0 16191614.023 -14983515.908 -12791043.327 10 0 59648 76500.00000 0 15236540.325 -13527971.403 -15333556.307 10 0 59648 77400.00000 0 14263552.663 -11740565.585 -17577964.239 10 0 59648 78300.00000 0 13329171.074 -9649775.113 -19480651.610 10 0 59648 79200.00000 0 12484820.396 -7295770.164 -21004655.975 10 0 59648 80100.00000 0 11774605.859 -4728985.939 -22120385.064 10 0 59648 81000.00000 0 11233416.101 -2008268.281 -22806189.517 10 0 59648 81900.00000 0 10885433.271 801329.954 -23048780.525 10 0 59648 82800.00000 0 10743112.617 3631010.503 -22843484.675 10 0 59648 83700.00000 0 10806674.042 6410847.582 -22194331.487 10 0 59648 84600.00000 0 11064126.590 9072453.830 -21113972.227 10 0 59648 85500.00000 0 11491824.384 11551584.162 -19623431.733 10 0 59649 0.00000 0 12055530.186 13790569.874 -17751698.300 10 0 59649 900.00000 0 12711941.817 15740483.749 -15535158.426 10 0 59649 1800.00000 0 13410616.094 17362943.890 -13016889.895 10 0 59649 2700.00000 0 14096209.980 18631486.125 -10245823.380 10 0 59649 3600.00000 0 14710943.537 19532445.619 -7275791.190 10 0 59649 4500.00000 0 15197180.794 20065313.200 -4164480.722 10 0 59649 5400.00000 0 15500019.350 20242552.376 -972313.148 10 0 59649 6300.00000 0 15569779.078 20088885.901 2238730.743 10 0 59649 7200.00000 0 15364284.562 19640082.899 5406314.419 10 0 59649 8100.00000 0 14850844.525 18941298.577 8468955.607 10 0 59649 9000.00000 0 14007844.310 18045037.201 11367218.772 10 0 59649 9900.00000 0 12825883.772 17008824.739 14044866.719 10 0 59649 10800.00000 0 11308412.053 15892689.580 16449949.081 10 0 59649 11700.00000 0 9471831.764 14756557.488 18535806.808 10 0 59649 12600.00000 0 7345067.363 13657670.386 20261973.464 10 0 59649 13500.00000 0 4968614.730 12648137.198 21594956.420 10 0 59649 14400.00000 0 2393110.484 11772719.277 22508883.357 10 0 59649 15300.00000 0 -322520.517 11066942.927 22986002.030 10 0 59649 16200.00000 0 -3113263.679 10555617.770 23017024.099 10 0 59649 17100.00000 0 -5910469.141 10251822.691 22601306.592 10 0 59649 18000.00000 0 -8644461.431 10156401.656 21746867.497 10 0 59649 18900.00000 0 -11247197.144 10257990.402 20470234.967 10 0 59649 19800.00000 0 -13654861.359 10533572.940 18796132.562 10 0 59649 20700.00000 0 -15810295.609 10949544.638 16757005.978 10 0 59649 21600.00000 0 -17665157.203 11463237.445 14392399.706 10 0 59649 22500.00000 0 -19181720.397 12024843.277 11748194.874 10 0 59649 23400.00000 0 -20334244.581 12579654.691 8875722.470 10 0 59649 24300.00000 0 -21109852.620 13070528.328 5830768.631 10 0 59649 25200.00000 0 -21508882.766 13440466.897 2672491.075 10 0 59649 26100.00000 0 -21544699.658 13635210.155 -537732.188 10 0 59649 27000.00000 0 -21242972.685 13605724.649 -3737499.177 10 0 59649 27900.00000 0 -20640452.536 13310486.043 -6864601.570 10 0 59649 28800.00000 0 -19783298.010 12717456.491 -9858239.201 10 0 59649 29700.00000 0 -18725024.219 11805672.332 -12660207.136 10 0 59649 30600.00000 0 -17524159.378 10566373.887 -15216031.649 10 0 59649 31500.00000 0 -16241709.566 9003628.554 -17476032.388 10 0 59649 32400.00000 0 -14938538.855 7134419.812 -19396289.869 10 0 59649 33300.00000 0 -13672775.526 4988197.324 -20939499.390 10 0 59649 34200.00000 0 -12497353.708 2605906.042 -22075694.884 10 0 59649 35100.00000 0 -11457793.821 38534.029 -22782828.965 10 0 59649 36000.00000 0 -10590314.805 -2654761.206 -23047198.318 10 0 59649 36900.00000 0 -9920357.014 -5408870.407 -22863706.597 10 0 59649 37800.00000 0 -9461577.164 -8155202.689 -22235960.144 10 0 59649 38700.00000 0 -9215356.816 -10824306.025 -21176194.947 10 0 59649 39600.00000 0 -9170844.280 -13348529.662 -19705036.480 10 0 59649 40500.00000 0 -9305527.409 -15664618.478 -17851097.094 10 0 59649 41400.00000 0 -9586312.461 -17716132.042 -15650418.722 10 0 59649 42300.00000 0 -9971062.997 -19455588.243 -13145771.601 10 0 59649 43200.00000 0 -10410533.380 -20846242.995 -10385822.497 10 0 59649 44100.00000 0 -10850614.866 -21863432.484 -7424188.403 10 0 59649 45000.00000 0 -11234799.045 -22495422.704 -4318394.190 10 0 59649 45900.00000 0 -11506754.190 -22743731.630 -1128754.431 10 0 59649 46800.00000 0 -11612905.281 -22622911.465 2082798.686 10 0 59649 47700.00000 0 -11504908.270 -22159801.009 5253918.320 10 0 59649 48600.00000 0 -11141913.666 -21392280.420 8323053.209 10 0 59649 49500.00000 0 -10492523.344 -20367581.511 11230641.525 10 0 59649 50400.00000 0 -9536357.535 -19140225.199 13920264.956 10 0 59649 51300.00000 0 -8265165.320 -17769673.288 16339740.731 10 0 59649 52200.00000 0 -6683431.124 -16317793.422 18442130.622 10 0 59649 53100.00000 0 -4808450.912 -14846243.698 20186647.648 10 0 59649 54000.00000 0 -2669873.794 -13413886.435 21539443.462 10 0 59649 54900.00000 0 -308727.024 -12074339.109 22474261.699 10 0 59649 55800.00000 0 2224036.153 -10873764.561 22972945.147 10 0 59649 56700.00000 0 4869406.711 -9848992.376 23025787.358 10 0 59649 57600.00000 0 7562531.673 -9026049.445 22631722.157 10 0 59649 58500.00000 0 10235176.905 -8419160.681 21798347.384 10 0 59649 59400.00000 0 12818339.817 -8030261.267 20541782.211 10 0 59649 60300.00000 0 15244904.503 -7849040.502 18886360.283 10 0 59649 61200.00000 0 17452229.762 -7853515.227 16864164.041 10 0 59649 62100.00000 0 19384562.996 -8011108.610 14514408.453 10 0 59649 63000.00000 0 20995179.896 -8280188.862 11882685.325 10 0 59649 63900.00000 0 22248160.795 -8612002.998 9020082.233 10 0 59649 64800.00000 0 23119729.626 -8952923.966 5982192.651 10 0 59649 65700.00000 0 23599099.449 -9246915.923 2828036.235 10 0 59649 66600.00000 0 23688789.078 -9438113.044 -381089.661 10 0 59649 67500.00000 0 23404397.638 -9473402.085 -3582804.658 10 0 59649 68400.00000 0 22773846.691 -9304898.594 -6714862.492 10 0 59649 69300.00000 0 21836122.120 -8892210.959 -9716366.244 10 0 59649 70200.00000 0 20639569.163 -8204395.453 -12528957.323 10 0 59649 71100.00000 0 19239812.865 -7221518.397 -15097954.514 10 0 59649 72000.00000 0 17697392.033 -5935758.325 -17373420.309 10 0 59649 72900.00000 0 16075206.725 -4352000.519 -19311133.515 10 0 59649 73800.00000 0 14435886.953 -2487897.672 -20873449.185 10 0 59649 74700.00000 0 12839193.381 -373393.151 -22030029.177 10 0 59649 75600.00000 0 11339559.111 1950274.224 -22758429.508 10 0 59649 76500.00000 0 9983875.392 4432043.202 -23044533.491 10 0 59649 77400.00000 0 8809613.616 7012920.183 -22882822.653 10 0 59649 78300.00000 0 7843361.604 9628208.358 -22276480.607 10 0 59649 79200.00000 0 7099834.601 12209983.796 -21237328.180 10 0 59649 80100.00000 0 6581401.484 14689715.926 -19785591.225 10 0 59649 81000.00000 0 6278144.999 17000924.034 -17949505.705 10 0 59649 81900.00000 0 6168452.392 19081759.717 -15764767.631 10 0 59649 82800.00000 0 6220110.674 20877408.205 -13273838.452 10 0 59649 83700.00000 0 6391859.426 22342209.001 -10525119.213 10 0 59649 84600.00000 0 6635334.913 23441407.894 -7572009.405 10 0 59649 85500.00000 0 6897322.777 24152467.649 -4471868.805 10 0 59650 0.00000 0 7122223.502 24465883.208 -1284902.813 10 0 59650 900.00000 0 7254626.039 24385467.999 1927008.673 10 0 59650 1800.00000 0 7241880.015 23928099.711 5101511.466 10 0 59650 2700.00000 0 7036557.706 23122937.449 8176988.621 10 0 59650 3600.00000 0 6598700.950 22010143.259 11093755.272 10 0 59650 4500.00000 0 5897757.746 20639162.488 13795215.126 10 0 59650 5400.00000 0 4914126.272 19066635.493 16228955.961 10 0 59650 6300.00000 0 3640240.541 17354028.514 18347763.100 10 0 59650 7200.00000 0 2081151.310 15565083.042 20110531.483 10 0 59650 8100.00000 0 254576.836 13763190.326 21483059.212 10 0 59650 9000.00000 0 -1809579.792 12008800.427 22438707.712 10 0 59650 9900.00000 0 -4070227.769 10356973.667 22958916.250 10 0 59650 10800.00000 0 -6476559.961 8855176.047 23033561.282 10 0 59650 11700.00000 0 -8969938.656 7541409.979 22661153.957 10 0 59650 12600.00000 0 -11486118.531 6442757.692 21848871.963 10 0 59650 13500.00000 0 -13957715.697 5574397.439 20612424.909 10 0 59650 14400.00000 0 -16316821.292 4939133.022 18975755.392 10 0 59650 15300.00000 0 -18497651.741 4527455.808 16970580.888 10 0 59650 16200.00000 0 -20439126.047 4318136.213 14635784.646 10 0 59650 17100.00000 0 -22087263.143 4279319.429 12016666.533 10 0 59650 18000.00000 0 -23397299.326 4370079.019 9164067.774 10 0 59650 18900.00000 0 -24335437.316 4542362.557 6133386.039 10 0 59650 19800.00000 0 -24880153.524 4743246.788 2983499.679 10 0 59650 20700.00000 0 -25023008.493 4917406.517 -224377.870 10 0 59650 21600.00000 0 -24768926.294 5009692.110 -3427891.038 10 0 59650 22500.00000 0 -24135931.012 4967705.685 -6564758.742 10 0 59650 23400.00000 0 -23154351.386 4744266.000 -9573990.294 10 0 59650 24300.00000 0 -21865527.203 4299656.623 -12397076.278 10 0 59650 25200.00000 0 -20320072.132 3603561.145 -14979130.615 10 0 59650 26100.00000 0 -18575766.366 2636602.511 -17269960.979 10 0 59650 27000.00000 0 -16695168.029 1391420.343 -19225046.486 10 0 59650 27900.00000 0 -14743043.908 -126760.299 -20806403.546 10 0 59650 28800.00000 0 -12783727.501 -1900093.661 -21983323.105 10 0 59650 29700.00000 0 -10878515.110 -3898614.079 -22732965.280 10 0 59650 30600.00000 0 -9083208.715 -6081252.801 -23040800.229 10 0 59650 31500.00000 0 -7445908.052 -8397329.117 -22900887.115 10 0 59650 32400.00000 0 -6005143.491 -10788454.382 -22315986.190 10 0 59650 33300.00000 0 -4788426.829 -13190770.204 -21297502.096 10 0 59650 34200.00000 0 -3811279.617 -15537428.077 -19865259.728 10 0 59650 35100.00000 0 -3076778.408 -17761207.697 -18047117.052 10 0 59650 36000.00000 0 -2575634.707 -19797165.333 -15878422.328 10 0 59650 36900.00000 0 -2286805.026 -21585202.161 -13401326.214 10 0 59650 37800.00000 0 -2178604.138 -23072445.822 -10663961.930 10 0 59650 38700.00000 0 -2210273.554 -24215346.065 -7719509.286 10 0 59650 39600.00000 0 -2333938.109 -24981397.186 -4625160.769 10 0 59650 40500.00000 0 -2496867.198 -25350415.540 -1441009.814 10 0 59650 41400.00000 0 -2643944.359 -25315319.033 1771117.026 10 0 59650 42300.00000 0 -2720240.207 -24882376.290 4948861.008 10 0 59650 43200.00000 0 -2673579.345 -24070915.525 8030541.724 10 0 59650 44100.00000 0 -2456992.217 -22912505.731 10956353.501 10 0 59650 45000.00000 0 -2030947.872 -21449644.922 13669524.276 10 0 59650 45900.00000 0 -1365272.840 -19734010.699 16117414.539 10 0 59650 46800.00000 0 -440674.673 -17824346.568 18252535.212 10 0 59650 47700.00000 0 750194.660 -15784072.504 20033465.040 10 0 59650 48600.00000 0 2202181.028 -13678719.420 21425650.223 10 0 59650 49500.00000 0 3897600.430 -11573294.325 22402071.355 10 0 59650 50400.00000 0 5806743.607 -9529685.562 22943765.254 10 0 59650 51300.00000 0 7888893.153 -7604215.635 23040192.031 10 0 59650 52200.00000 0 10093812.075 -5845442.770 22689440.594 10 0 59650 53100.00000 0 12363643.060 -4292302.069 21898268.598 10 0 59650 54000.00000 0 14635140.677 -2972662.857 20681975.926 10 0 59650 54900.00000 0 16842144.753 -1902361.627 19064113.666 10 0 59650 55800.00000 0 18918192.797 -1084750.264 17076033.610 10 0 59650 56700.00000 0 20799163.351 -510777.785 14756286.264 10 0 59650 57600.00000 0 22425840.426 -159601.566 12149878.241 10 0 59650 58500.00000 0 23746291.993 298.118 9307402.788 10 0 59650 59400.00000 0 24717963.003 9547.668 6284059.810 10 0 59650 60300.00000 0 25309394.950 -84079.389 3138584.084 10 0 59650 61200.00000 0 25501499.437 -227927.748 -67897.425 10 0 59650 62100.00000 0 25288331.820 -366934.989 -3273056.721 10 0 59650 63000.00000 0 24677332.006 -446210.019 -6414580.782 10 0 59650 63900.00000 0 23689021.960 -413605.239 -9431388.059 10 0 59650 64800.00000 0 22356172.449 -222172.517 -12264821.139 10 0 59650 65700.00000 0 20722474.000 167602.034 -14859791.748 10 0 59650 66600.00000 0 18840768.021 785880.038 -17165855.221 10 0 59650 67500.00000 0 16770912.500 1651951.715 -19138193.241 10 0 59650 68400.00000 0 14577371.925 2773180.732 -20738485.616 10 0 59650 69300.00000 0 12326632.577 4144458.489 -21935654.209 10 0 59650 70200.00000 0 10084551.303 5748191.693 -22706464.837 10 0 59650 71100.00000 0 7913748.400 7554824.704 -23035975.880 10 0 59650 72000.00000 0 5871153.119 9523875.495 -22917825.253 10 0 59650 72900.00000 0 4005803.620 11605442.692 -22354350.647 10 0 59650 73800.00000 0 2356992.262 13742121.392 -21356540.986 10 0 59650 74700.00000 0 952832.636 15871248.290 -19943820.295 10 0 59650 75600.00000 0 -190693.079 17927382.936 -18143668.222 10 0 59650 76500.00000 0 -1070168.011 19844921.976 -15991084.546 10 0 59650 77400.00000 0 -1694638.950 21560737.475 -13527907.980 10 0 59650 78300.00000 0 -2084984.884 23016729.395 -10802002.344 10 0 59650 79200.00000 0 -2272783.635 24162185.680 -7866325.792 10 0 59650 80100.00000 0 -2298725.526 24955851.315 -4777901.170 10 0 59650 81000.00000 0 -2210642.110 25367619.858 -1596707.572 10 0 59650 81900.00000 0 -2061234.134 25379776.690 1615485.300 10 0 59650 82800.00000 0 -1905595.516 24987741.987 4796316.978 10 0 59650 83700.00000 0 -1798638.726 24200282.445 7884046.808 10 0 59650 84600.00000 0 -1792530.934 23039183.029 10818751.553 10 0 59650 85500.00000 0 -1934249.758 21538392.678 13543486.578 10 0 59651 0.00000 0 -2263362.255 19742680.030 16005387.959 10 0 59651 900.00000 0 -2810121.484 17705854.388 18156695.592 10 0 59651 1800.00000 0 -3593960.862 15488628.733 19955674.507 10 0 59651 2700.00000 0 -4622450.836 13156210.473 21367421.480 10 0 59651 3600.00000 0 -5890762.062 10775722.374 22364538.452 10 0 59651 4500.00000 0 -7381658.615 8413559.631 22927661.613 10 0 59651 5400.00000 0 -9066022.599 6132792.534 23045836.150 10 0 59651 6300.00000 0 -10903889.404 3990721.919 22716729.663 10 0 59651 7200.00000 0 -12845951.634 2036688.286 21946680.190 10 0 59651 8100.00000 0 -14835470.197 310224.790 20750577.721 10 0 59651 9000.00000 0 -16810514.049 -1160369.886 19151581.069 10 0 59651 9900.00000 0 -18706436.081 -2358980.069 17180674.977 10 0 59651 10800.00000 0 -20458482.610 -3282104.270 14876075.294 10 0 59651 11700.00000 0 -22004427.964 -3938751.681 12282492.948 10 0 59651 12600.00000 0 -23287124.113 -4349808.964 9450270.376 10 0 59651 13500.00000 0 -24256858.505 -4546904.618 6434406.568 10 0 59651 14400.00000 0 -24873420.926 -4570819.353 3293489.372 10 0 59651 15300.00000 0 -25107792.038 -4469510.182 88555.812 10 0 59651 16200.00000 0 -24943382.043 -4295832.445 -3118097.187 10 0 59651 17100.00000 0 -24376766.700 -4105056.903 -6264128.134 10 0 59651 18000.00000 0 -23417889.118 -3952287.838 -9288368.000 10 0 59651 18900.00000 0 -22089718.334 -3889892.435 -12132014.612 10 0 59651 19800.00000 0 -20427378.625 -3965051.223 -14739780.546 10 0 59651 20700.00000 0 -18476785.933 -4217534.157 -17060971.561 10 0 59651 21600.00000 0 -16292848.517 -4677797.331 -19050474.299 10 0 59651 22500.00000 0 -13937307.164 -5365481.564 -20669633.914 10 0 59651 23400.00000 0 -11476305.418 -6288377.001 -21887004.592 10 0 59651 24300.00000 0 -8977791.253 -7441898.113 -22678958.702 10 0 59651 25200.00000 0 -6508858.483 -8809091.895 -23030143.093 10 0 59651 26100.00000 0 -4133138.444 -10361179.584 -22933774.123 10 0 59651 27000.00000 0 -1908350.091 -12058609.809 -22391766.098 10 0 59651 27900.00000 0 115890.248 -13852579.675 -21414690.971 10 0 59651 28800.00000 0 1899909.106 -15686960.592 -20021570.270 10 0 59651 29700.00000 0 3415390.613 -17500548.741 -18239503.412 10 0 59651 30600.00000 0 4646308.028 -19229546.431 -16103139.548 10 0 59651 31500.00000 0 5589334.559 -20810170.753 -13654003.126 10 0 59651 32400.00000 0 6253717.780 -22181280.547 -10939686.130 10 0 59651 33300.00000 0 6660624.451 -23286911.773 -8012922.545 10 0 59651 34200.00000 0 6841984.622 -24078615.026 -4930563.033 10 0 59651 35100.00000 0 6838885.065 -24517497.160 -1752469.792 10 0 59651 36000.00000 0 6699580.893 -24575881.322 1459646.837 10 0 59651 36900.00000 0 6477210.283 -24238515.635 4643427.118 10 0 59651 37800.00000 0 6227309.661 -23503279.739 7737072.524 10 0 59651 38700.00000 0 6005235.005 -22381359.468 10680544.511 10 0 59651 39600.00000 0 5863598.711 -20896882.244 13416727.996 10 0 59651 40500.00000 0 5849830.672 -19086028.346 15892537.006 10 0 59651 41400.00000 0 6003966.846 -16995655.012 18059941.258 10 0 59651 42300.00000 0 6356758.810 -14681490.659 19876894.038 10 0 59651 43200.00000 0 6928184.279 -12205974.136 21308143.903 10 0 59651 44100.00000 0 7726421.677 -9635828.520 22325915.049 10 0 59651 45000.00000 0 8747332.388 -7039469.839 22910443.634 10 0 59651 45900.00000 0 9974473.176 -4484357.663 23050360.198 10 0 59651 46800.00000 0 11379639.187 -2034396.754 22742911.028 10 0 59651 47700.00000 0 12923915.827 252503.128 21994014.260 10 0 59651 48600.00000 0 14559196.657 2326608.872 20818149.476 10 0 59651 49500.00000 0 16230104.974 4148197.372 19238082.486 10 0 59651 50400.00000 0 17876239.687 5688965.082 17284430.050 10 0 59651 51300.00000 0 19434652.409 6932955.910 14995072.225 10 0 59651 52200.00000 0 20842452.649 7876969.475 12414422.927 10 0 59651 53100.00000 0 22039432.205 8530433.289 9592572.219 10 0 59651 54000.00000 0 22970598.657 8914745.000 6584316.397 10 0 59651 54900.00000 0 23588511.307 9062112.964 3448094.357 10 0 59651 55800.00000 0 23855320.747 9013944.704 244850.966 10 0 59651 56700.00000 0 23744425.583 8818851.989 -2963150.318 10 0 59651 57600.00000 0 23241675.728 8530357.606 -6113542.022 10 0 59651 58500.00000 0 22346070.747 8204401.669 -9145070.152 10 0 59651 59400.00000 0 21069923.097 7896753.844 -11998790.225 10 0 59651 60300.00000 0 19438478.660 7660441.923 -14619218.001 10 0 59651 61200.00000 0 17489009.986 7543306.384 -16955411.837 10 0 59651 62100.00000 0 15269419.882 7585785.154 -18961965.337 10 0 59651 63000.00000 0 12836413.505 7819022.924 -20599890.833 10 0 59651 63900.00000 0 10253315.290 8263385.396 -21837376.521 10 0 59651 64800.00000 0 7587621.645 8927441.713 -22650402.838 10 0 59651 65700.00000 0 4908391.228 9807458.353 -23023206.466 10 0 59651 66600.00000 0 2283581.262 10887426.238 -22948583.356 10 0 59651 67500.00000 0 -222559.766 12139620.284 -22428025.333 10 0 59651 68400.00000 0 -2551935.241 13525668.331 -21471687.946 10 0 59651 69300.00000 0 -4654778.500 14998084.911 -20098190.439 10 0 59651 70200.00000 0 -6491476.296 16502205.897 -18334251.808 10 0 59651 71100.00000 0 -8033962.923 17978443.192 -16214169.976 10 0 59651 72000.00000 0 -9266628.101 19364765.096 -13779154.128 10 0 59651 72900.00000 0 -10186702.202 20599298.460 -11076523.039 10 0 59651 73800.00000 0 -10804104.190 21622943.469 -8158784.802 10 0 59651 74700.00000 0 -11140760.060 22381891.213 -5082615.874 10 0 59651 75600.00000 0 -11229421.900 22829938.189 -1907759.279 10 0 59651 76500.00000 0 -11112038.556 22930500.298 1304136.516 10 0 59651 77400.00000 0 -10837747.677 22658241.469 4490715.193 10 0 59651 78300.00000 0 -10460574.873 22000248.217 7590123.176 10 0 59651 79200.00000 0 -10036937.851 20956700.530 10542209.543 10 0 59651 80100.00000 0 -9623061.486 19541010.620 13289691.731 10 0 59651 81000.00000 0 -9272413.372 17779423.369 15779264.473 10 0 59651 81900.00000 0 -9033268.296 15710094.771 17962630.668 10 0 59651 82800.00000 0 -8946504.472 13381686.439 19797434.422 10 0 59651 83700.00000 0 -9043724.504 10851534.254 21248078.715 10 0 59651 84600.00000 0 -9345780.270 8183466.746 22286412.407 10 0 59651 85500.00000 0 -9861763.950 5445363.252 22892273.751 99